FW0663 Weather Reports


Display with metric or nautical units.
time (UTC)temp
F
wind
direction
speed
MPH
gust
MPH
rain 1hr
in
rain 24hr
in
rain mn
in
humidity
%
barometer
mb
20260506061511 53 114 1.0 4.0 0.00 0.00 0.00 61 1014.4
20260506044601 55 119 1.0 2.0 0.00 0.00 0.00 58 1013.3
20260506043059 58 93 1.0 3.0 0.00 0.00 0.00 54 1013.1
20260506041606 59 78 1.0 3.0 0.00 0.00 0.00 50 1012.9
20260506040059 61 58 0.0 3.0 0.00 0.00 0.00 49 1012.7
20260506034600 64 74 1.0 3.0 0.00 0.00 0.00 45 1012.4
20260506033056 67 92 0.0 2.0 0.00 0.00 0.00 38 1012.2
20260506031557 68 102 0.0 2.0 0.00 0.00 0.00 36 1012.0
20260506030057 70 101 0.0 2.0 0.00 0.00 0.00 35 1011.8
20260506024601 74 92 0.0 3.0 0.00 0.00 0.00 30 1011.5
20260506023056 75 76 1.0 6.0 0.00 0.00 0.00 28 1011.3
20260506021553 76 314 1.0 7.0 0.00 0.00 0.00 27 1011.2
20260506020107 77 76 1.0 9.0 0.00 0.00 0.00 27 1011.0
20260506014608 78 9 1.0 6.0 0.00 0.00 0.00 28 1011.0
20260506013051 79 149 2.0 9.0 0.00 0.00 0.00 26 1010.9
20260506011614 79 24 3.0 8.0 0.00 0.00 0.00 26 1010.8
20260506010050 79 355 3.0 7.0 0.00 0.00 0.00 25 1010.7
20260506004601 80 9 3.0 9.0 0.00 0.00 0.00 25 1010.7
20260506003049 78 61 1.0 9.0 0.00 0.00 0.00 26 1010.6
20260506001548 79 342 4.0 8.0 0.00 0.00 0.00 25 1010.6
20260506000113 80 333 2.0 9.0 0.00 0.00 0.00 26 1010.6
20260505234551 79 315 7.0 12.0 0.00 0.00 0.00 27 1010.6
20260505233045 77 327 5.0 10.0 0.00 0.00 0.00 29 1010.8
20260505231548 78 344 5.0 9.0 0.00 0.00 0.00 28 1010.7
20260505230101 78 52 3.0 7.0 0.00 0.00 0.00 29 1010.7
20260505224545 79 15 5.0 11.0 0.00 0.00 0.00 28 1010.7
20260505223043 78 303 4.0 11.0 0.00 0.00 0.00 27 1010.7
20260505221549 80 325 4.0 10.0 0.00 0.00 0.00 26 1010.8
20260505220044 80 321 3.0 12.0 0.00 0.00 0.00 26 1010.8
20260505214542 80 318 7.0 13.0 0.00 0.00 0.00 27 1011.0
20260505213040 80 343 2.0 11.0 0.00 0.00 0.00 28 1011.0
20260505211541 79 329 4.0 14.0 0.00 0.00 0.00 26 1011.0
20260505210038 79 321 4.0 14.0 0.00 0.00 0.00 28 1010.9
20260505204545 78 175 2.0 10.0 0.00 0.00 0.00 33 1010.9
20260505203037 77 340 4.0 11.0 0.00 0.00 0.00 36 1011.0
20260505201533 77 330 4.0 11.0 0.00 0.00 0.00 36 1011.2
20260505200031 76 290 5.0 13.0 0.00 0.00 0.00 39 1011.3
20260505194534 76 342 3.0 8.0 0.00 0.00 0.00 39 1011.5
20260505193027 74 142 2.0 10.0 0.00 0.00 0.00 39 1011.7
20260505191525 74 346 1.0 8.0 0.00 0.00 0.00 39 1011.8
20260505190022 73 281 3.0 8.0 0.00 0.00 0.00 41 1012.0
20260505184524 71 333 2.0 7.0 0.00 0.00 0.00 43 1012.1
20260505183019 71 275 3.0 7.0 0.00 0.00 0.00 44 1012.1
20260505181515 70 284 3.0 10.0 0.00 0.00 0.00 44 1012.2
20260505180013 69 281 1.0 6.0 0.00 0.00 0.00 45 1012.2
20260505174510 68 254 3.0 6.0 0.00 0.00 0.00 46 1012.2
20260505173008 67 317 1.0 5.0 0.00 0.00 0.00 47 1012.4
20260505171504 66 289 1.0 6.0 0.00 0.00 0.00 49 1012.4
20260505170100 64 16 1.0 4.0 0.00 0.00 0.00 51 1012.4
20260505164604 63 268 1.0 3.0 0.00 0.00 0.00 53 1012.5
20260505163057 62 243 1.0 6.0 0.00 0.00 0.00 54 1012.6
20260505161555 61 213 0.0 2.0 0.00 0.00 0.00 55 1012.7
20260505153042 56 81 1.0 3.0 0.00 0.00 0.00 60 1012.9
20260505151539 55 92 1.0 3.0 0.00 0.00 0.00 61 1012.9
20260505124538 40 109 1.0 2.0 0.00 0.00 0.00 79 1011.8
20260505123019 42 97 1.0 3.0 0.00 0.00 0.00 75 1011.8
20260505121529 43 105 0.0 2.0 0.00 0.00 0.00 75 1011.6
20260505120016 43 118 0.0 2.0 0.00 0.00 0.00 75 1011.4
20260505114515 43 113 1.0 3.0 0.00 0.00 0.00 75 1011.4
20260505113014 43 111 1.0 3.0 0.00 0.00 0.00 74 1011.3
20260505111512 44 114 1.0 3.0 0.00 0.00 0.00 72 1011.3
20260505101508 42 107 1.0 2.0 0.00 0.00 0.00 75 1011.0
20260505100016 43 100 1.0 4.0 0.00 0.00 0.00 73 1010.9
20260505094501 46 96 1.0 2.0 0.00 0.00 0.00 68 1010.9
20260505093100 46 108 0.0 2.0 0.00 0.00 0.00 67 1010.9
20260505091617 47 131 1.0 2.0 0.00 0.00 0.00 67 1010.8
20260505090101 47 109 0.0 3.0 0.00 0.00 0.00 67 1010.8
20260505084555 47 102 0.0 3.0 0.00 0.00 0.00 65 1010.8
20260505083054 47 102 1.0 3.0 0.00 0.00 0.00 65 1010.8
20260505081550 48 92 1.0 3.0 0.00 0.00 0.00 63 1010.7
20260505080052 49 105 1.0 3.0 0.00 0.00 0.00 60 1010.7
20260505074543 51 107 0.0 3.0 0.00 0.00 0.00 58 1010.7
20260505073053 52 308 0.0 2.0 0.00 0.00 0.00 52 1010.6
20260505071542 53 311 0.0 2.0 0.00 0.00 0.00 50 1010.6